Dewpoint
58 58 58 57 58 58 58 58 58 58 59 59 59 59 59 59 59 59 59 59 59 59 59 59 59 59 59 58 58 58 57 54 52 47 50 45 57 68 70 72 71 72 74 55 45 42 43 43 40 43 46 43 42 37 38 37 35 36 34 30 22 20 23 26 29 35 38 39 40 43 43 42 43 43 44 48 49 49 51 48 49 48 48 51 56 58 58 60
57 57 57 57 57 58 58 58 58 58 58 58 58 59 59 58 59 58 59 59 59 59 58 58 58 59 58 58 58 58 56 53 48 42 36 51 64 72 72 74 72 72 72 47 38 36 39 36 36 41 40 37 35 32 30 29 32 34 34 26 18 23 23 24 31 35 37 39 41 42 44 45 44 44 46 46 48 50 48 48 48 49 52 56 58 58 59 59
57 57 57 57 57 57 57 58 57 58 58 58 58 58 58 58 58 58 58 59 58 58 58 58 58 58 58 57 58 57 55 51 48 42 36 60 70 67 71 73 72 73 53 37 33 36 36 32 33 35 35 32 28 23 24 24 28 27 24 23 19 22 27 32 34 34 37 39 39 41 42 44 44 44 46 44 46 49 50 52 51 53 54 56 57 58 58 59
57 57 57 57 57 57 57 57 57 58 58 57 58 58 58 58 57 58 58 58 58 58 58 57 57 57 57 58 58 56 53 51 38 27 27 64 68 68 69 71 73 71 49 36 32 35 30 29 30 31 32 32 25 19 23 23 25 20 19 18 17 21 27 30 33 35 36 38 40 39 41 45 49 48 49 42 44 49 48 51 52 55 56 56 57 57 57 56
57 56 56 57 57 57 57 57 57 57 57 57 57 57 58 58 57 57 57 58 58 58 57 57 57 57 57 57 57 55 53 33 13 45 56 69 68 68 68 69 72 60 46 36 34 38 34 26 26 30 31 29 25 19 19 19 16 19 21 20 20 23 27 31 33 36 38 38 38 40 42 45 44 47 45 49 50 51 48 51 53 56 56 56 57 56 57 57
56 56 56 56 57 57 57 57 57 57 57 57 57 57 57 57 57 57 57 58 58 57 57 57 57 57 57 57 56 54 46 23 31 45 76 72 70 69 68 69 71 56 43 35 35 37 30 24 24 28 31 29 21 16 22 16 13 18 19 22 26 28 31 33 32 32 34 38 38 39 40 45 44 49 48 48 49 48 51 52 54 54 56 57 57 56 57 56
56 56 56 56 56 57 57 57 57 57 57 57 57 57 57 56 56 56 57 58 58 57 57 57 57 57 57 57 54 51 43 28 25 47 72 72 71 71 70 71 70 53 40 32 32 33 28 21 25 28 30 26 10 9 12 6 16 19 19 19 25 24 29 31 30 34 35 34 35 38 41 45 50 48 54 50 50 53 53 55 55 57 57 57 56 56 57 58
56 56 56 56 56 56 56 56 56 56 56 56 56 57 56 56 56 56 57 58 58 57 57 57 57 58 57 53 51 45 38 31 28 50 72 70 64 66 68 48 43 37 38 34 32 30 25 21 24 29 28 21 12 14 12 7 13 22 21 24 25 28 29 31 32 31 31 35 39 40 40 43 47 51 52 52 53 54 55 56 55 56 57 56 57 57 58 59
55 56 56 56 56 56 56 56 56 56 56 56 56 56 56 56 55 56 58 58 57 57 57 57 57 56 57 55 48 40 34 31 46 48 60 48 41 45 40 36 37 31 30 33 33 32 23 21 24 28 24 17 12 9 14 12 20 22 26 27 25 28 29 31 28 28 32 32 33 39 41 43 46 48 49 53 54 55 55 55 56 56 56 56 57 59 60 60
55 55 55 56 56 56 56 56 56 56 56 56 56 55 56 55 55 56 58 58 57 57 57 57 57 58 55 54 38 30 36 44 42 46 49 35 34 33 35 29 35 33 29 27 29 29 22 21 26 29 28 24 9 10 12 14 21 25 21 27 27 28 28 27 26 30 32 34 36 37 41 43 46 46 47 49 54 55 55 56 56 56 56 56 57 59 60 59
55 55 55 55 55 55 55 56 56 56 56 56 55 55 55 55 55 56 58 58 57 57 57 58 57 57 51 47 38 27 39 37 45 43 33 32 29 30 29 28 27 28 26 24 25 24 20 21 28 28 24 17 12 11 10 16 25 24 27 27 29 28 27 28 29 30 33 34 36 39 42 43 44 46 48 49 49 52 54 55 55 56 56 56 56 60 63 63
55 55 55 55 55 55 55 55 55 55 55 55 55 55 55 55 55 55 57 58 58 57 58 58 59 56 52 43 42 37 35 36 33 39 38 30 24 26 25 26 21 21 21 21 21 19 18 18 24 28 19 17 8 13 19 23 25 25 28 26 28 29 28 28 29 33 35 33 37 39 38 40 44 44 50 50 51 52 52 54 55 56 57 57 58 58 63 62
54 55 55 55 55 55 55 55 55 55 55 55 55 54 55 54 54 55 57 58 58 58 58 58 59 57 53 44 33 39 38 35 33 33 38 36 23 22 21 22 21 18 18 20 18 17 18 24 27 27 22 7 11 11 23 24 24 28 28 29 28 28 27 30 33 33 33 34 37 38 38 41 42 47 49 51 51 52 51 50 51 55 55 58 59 60 61 62
54 55 55 54 54 55 55 55 55 55 54 54 54 54 54 54 55 56 58 58 58 59 59 59 58 56 54 47 41 26 30 34 38 34 35 37 30 21 17 19 20 17 18 17 14 14 19 23 28 28 23 17 11 18 16 20 27 26 28 28 25 26 27 32 34 33 34 35 36 36 38 40 44 46 48 51 50 50 49 49 50 52 55 56 55 56 57 60
54 54 54 54 54 54 54 54 54 54 54 54 54 53 53 54 55 57 59 59 59 59 59 60 58 57 43 32 35 36 73 31 38 33 31 32 31 20 15 16 18 16 16 15 13 14 20 27 30 27 22 21 18 17 17 22 26 26 30 27 25 26 29 31 34 34 35 36 36 36 42 41 43 45 48 49 49 48 50 50 50 51 54 53 55 57 60 59
54 54 54 54 54 54 54 54 54 54 54 54 53 53 54 54 56 58 59 60 61 61 57 57 57 52 44 42 43 54 25 21 26 29 27 31 28 18 15 17 17 14 13 12 12 12 21 29 27 26 22 19 17 15 17 23 24 27 30 28 28 27 29 29 31 32 35 35 37 35 36 39 42 44 47 48 48 48 49 50 51 53 53 53 55 55 60 58
54 53 53 54 54 54 54 54 53 54 53 53 53 53 53 55 57 59 60 60 59 58 56 52 53 54 45 34 37 32 26 18 19 27 28 29 26 20 18 19 16 13 12 12 19 27 25 28 29 25 21 18 20 19 22 20 24 28 29 29 31 28 30 29 29 27 34 32 32 35 33 39 41 45 46 47 47 48 47 49 51 52 55 54 56 57 59 58
53 53 53 54 54 54 54 53 53 53 53 52 52 52 51 55 57 59 60 59 58 56 53 52 50 45 42 41 38 33 22 14 22 25 27 28 25 18 16 15 13 12 14 16 27 27 27 27 25 21 19 17 18 19 23 22 22 23 25 27 28 28 31 29 28 26 31 30 31 34 37 40 40 43 44 44 46 46 46 47 48 52 55 57 56 57 57 59
53 53 53 53 53 54 53 53 53 53 52 52 53 53 56 56 55 55 54 55 54 56 41 43 45 33 24 33 34 33 15 19 25 24 23 22 21 16 14 13 11 13 11 19 26 26 25 25 23 21 19 17 14 18 19 23 22 24 26 25 26 25 29 29 30 29 30 28 30 33 36 38 39 41 42 42 43 45 46 47 49 50 53 57 57 60 58 60
53 54 53 53 53 53 54 53 53 52 52 50 47 50 55 58 55 51 54 53 49 43 39 33 39 33 31 27 28 23 16 29 24 23 20 20 17 12 9 8 8 9 12 20 23 23 24 23 21 20 18 14 14 18 19 20 19 23 24 23 26 26 26 28 30 29 29 28 31 34 38 38 39 39 41 42 43 44 44 47 48 51 53 55 57 58 59 59
53 52 53 53 53 53 53 53 53 52 52 50 47 46 36 36 33 32 34 36 47 48 43 36 32 34 29 26 19 17 21 27 25 22 20 24 19 8 6 7 8 9 13 18 19 23 22 22 20 17 16 12 13 18 19 20 20 19 20 19 20 22 22 23 27 28 29 28 30 34 37 39 40 39 40 42 41 42 42 46 48 49 51 55 57 56 58 60
53 53 53 53 53 53 53 52 52 52 51 51 50 37 28 32 32 31 36 32 32 31 31 35 35 28 29 29 19 18 27 24 22 20 19 22 23 14 6 7 10 10 14 16 19 21 22 18 18 15 15 13 14 16 19 19 17 18 15 14 15 22 21 24 24 27 28 28 31 32 38 40 41 39 40 41 40 44 43 46 46 50 51 55 54 54 57 58
53 53 53 53 52 52 52 52 51 51 50 51 48 44 39 35 32 35 37 35 33 33 29 30 31 28 27 28 25 28 26 23 18 17 15 19 23 16 8 9 10 10 13 14 15 18 20 18 17 15 14 13 12 15 17 17 16 12 9 15 14 18 17 20 25 27 28 28 28 34 34 43 42 43 41 41 41 44 44 44 45 48 51 53 51 53 55 55
53 53 52 52 52 51 52 51 51 51 51 49 41 38 37 33 28 36 37 34 31 29 26 31 28 27 25 26 25 26 25 23 18 14 16 13 16 17 10 9 10 11 12 13 15 17 18 19 17 16 13 13 11 12 15 15 12 15 15 12 13 17 18 21 26 28 31 29 28 33 34 40 48 44 42 43 42 42 42 44 46 49 48 51 51 51 54 55
53 52 53 52 51 52 50 50 48 39 26 26 26 24 29 37 44 40 38 37 34 31 31 26 32 24 25 27 27 24 22 21 19 15 15 10 11 13 12 10 10 10 13 12 13 16 17 18 17 16 14 15 13 11 12 14 14 12 13 14 13 15 17 23 28 28 27 28 26 31 34 44 48 48 49 45 43 43 44 46 46 52 49 51 49 51 53 54
52 52 52 52 52 52 50 47 42 33 20 18 25 28 36 38 40 44 38 38 28 19 27 22 28 22 25 23 25 24 22 18 19 17 15 12 17 12 13 9 10 11 13 14 13 16 16 17 18 17 17 15 12 11 11 11 11 12 14 15 14 11 10 14 15 21 28 29 29 25 28 43 47 45 47 51 49 44 45 45 44 50 54 50 50 51 51 52
52 52 52 52 52 50 41 17 43 36 17 15 16 22 29 30 47 37 39 36 31 19 24 20 21 21 24 22 22 25 20 17 19 18 17 20 13 15 13 12 13 14 14 14 15 13 15 16 16 17 18 16 12 12 11 12 12 12 12 12 11 11 9 12 16 21 27 27 24 25 26 37 42 46 49 52 54 51 46 45 46 46 51 48 50 50 54 52
52 52 51 51 51 50 47 45 44 35 20 15 15 16 25 39 41 34 40 31 19 21 21 21 18 23 20 21 23 22 20 16 17 18 19 17 17 13 11 10 10 12 12 12 11 14 16 16 15 13 14 15 13 11 15 15 12 12 15 19 11 12 13 6 9 21 22 20 23 23 27 28 36 45 50 52 48 49 50 46 46 49 50 51 50 50 53 53
51 52 51 51 50 50 49 47 46 35 25 23 28 27 27 38 31 32 35 34 25 22 25 21 25 24 21 22 24 22 17 15 16 17 19 18 17 15 11 13 11 12 14 13 12 13 15 16 12 9 11 13 17 13 14 16 11 12 12 19 14 12 8 11 12 11 17 26 24 32 26 30 32 38 47 49 48 45 46 48 48 50 50 51 50 51 51 55
51 51 51 51 49 46 51 49 47 43 39 36 38 41 34 34 30 30 32 29 26 19 21 18 17 19 20 23 23 22 16 13 14 16 19 18 17 18 16 16 13 12 12 13 12 12 11 20 17 9 10 14 14 14 13 12 12 12 15 17 13 9 14 18 17 22 29 26 30 24 24 27 28 34 36 44 44 45 46 50 50 49 49 50 53 50 50 53
51 51 50 50 47 44 41 30 27 37 43 46 38 32 35 32 29 32 30 27 17 17 18 19 16 18 18 22 21 20 17 13 14 15 17 18 16 18 18 14 15 11 11 13 12 13 10 6 11 10 12 12 13 13 12 12 11 11 15 16 17 22 22 24 22 28 26 25 31 25 23 22 27 32 34 46 45 43 45 48 49 46 49 51 54 50 49 51
50 50 51 50 48 47 41 24 21 24 36 32 26 25 29 26 30 31 29 20 16 15 15 16 16 16 17 20 18 15 14 14 14 14 17 14 14 15 17 15 15 12 10 12 11 12 8 3 11 15 23 14 13 9 10 10 10 14 18 19 21 23 21 22 28 23 24 22 24 21 20 22 30 33 33 31 46 43 46 44 44 46 47 48 48 51 51 52
49 49 50 49 50 49 48 43 39 43 37 30 21 21 27 27 29 28 26 23 13 15 13 14 14 15 16 18 15 10 14 13 12 14 16 13 12 13 15 14 12 11 10 10 9 6 6 6 14 16 15 18 11 9 10 11 10 11 17 21 23 20 21 23 23 26 25 21 21 20 19 20 32 31 34 28 35 44 42 44 44 46 47 48 49 51 48 48
48 49 48 50 48 48 46 51 48 43 39 37 26 21 26 25 26 39 25 20 16 13 12 12 12 14 15 16 14 10 10 15 13 15 16 14 10 11 12 14 13 12 10 10 8 5 7 15 15 14 10 13 12 10 12 14 13 15 16 16 22 23 22 23 23 21 20 22 20 22 21 26 20 31 24 25 38 37 36 36 46 48 46 50 47 48 48 48
48 49 50 50 50 48 47 47 48 46 42 30 16 19 23 26 25 26 25 20 18 15 11 10 10 13 13 14 14 10 12 14 14 14 15 12 9 9 10 12 16 11 10 6 7 10 10 15 17 15 12 13 16 16 15 15 16 15 15 16 17 18 25 22 24 22 22 20 20 27 23 27 25 36 34 32 35 39 40 37 39 42 37 45 46 47 47 49
48 48 43 39 44 50 49 47 45 44 41 22 15 22 21 23 21 22 24 22 19 17 14 14 9 11 10 11 14 11 13 13 12 12 13 12 8 8 11 12 13 12 8 8 8 12 16 14 15 17 14 15 16 18 16 15 16 15 14 15 16 15 19 23 26 18 20 21 23 28 26 26 25 28 28 30 31 32 32 32 32 38 35 54 51 49 49 50
46 47 41 36 31 33 46 47 44 44 39 20 15 20 22 20 19 20 26 20 17 17 19 12 10 6 10 10 10 10 12 12 12 13 15 11 9 8 10 11 9 10 8 9 13 13 14 13 13 15 16 15 17 16 15 13 14 14 14 14 16 14 13 25 18 32 21 18 22 18 21 22 25 26 36 32 30 31 33 33 28 39 40 39 42 52 53 56
47 46 46 46 38 30 45 47 43 43 31 16 17 32 22 18 19 18 21 22 18 17 16 16 14 11 8 9 8 9 11 9 11 15 13 11 9 9 8 8 7 8 11 12 15 15 13 13 12 15 15 14 15 14 13 13 15 13 13 14 12 17 19 28 23 20 20 22 22 22 20 21 25 30 31 33 30 33 37 41 34 34 36 40 39 56 59 59
49 49 46 42 42 29 45 46 41 36 21 14 16 25 23 23 21 18 20 21 19 18 16 18 14 11 9 7 8 9 10 8 9 11 14 12 9 9 7 8 6 7 12 16 15 15 12 11 14 14 14 15 14 13 14 11 13 14 14 12 12 14 20 25 23 25 26 22 24 24 24 28 28 29 27 31 37 40 34 38 32 30 33 39 45 54 58 60
41 31 25 35 29 38 47 42 35 30 16 12 17 20 24 22 21 21 22 24 25 19 20 22 19 17 10 9 8 9 10 10 7 10 11 9 7 6 5 6 6 8 12 16 15 14 16 23 15 13 16 14 14 14 12 13 12 11 11 12 12 14 14 17 18 20 21 24 25 23 20 28 31 28 30 35 35 37 31 35 46 38 37 31 42 45 53 59
39 33 27 37 37 45 44 37 33 26 19 14 16 19 21 20 18 17 19 23 22 20 20 22 21 19 18 8 3 7 10 10 9 6 10 10 10 13 11 10 9 8 11 12 14 15 21 17 16 16 16 14 12 14 13 13 12 10 10 11 11 14 17 17 20 19 18 22 30 24 22 31 30 34 42 32 36 31 32 32 43 37 32 50 46 45 54 55
44 28 23 39 43 44 40 33 29 24 17 15 15 18 21 36 19 17 18 22 22 20 23 23 22 20 21 22 13 9 8 10 9 8 8 8 13 12 12 11 11 12 11 16 16 15 21 21 16 17 16 15 13 13 15 13 12 11 11 11 13 15 17 19 22 23 20 21 21 25 20 29 33 37 37 36 31 25 33 30 35 33 37 35 39 32 55 62
38 35 39 41 45 41 36 26 28 26 19 16 16 17 18 18 17 17 18 20 20 20 18 18 20 22 23 24 24 21 9 10 11 8 8 7 14 12 14 13 13 13 12 12 13 17 48 17 21 17 23 17 17 15 16 16 14 11 11 12 12 11 12 15 19 25 22 23 22 20 24 26 33 51 41 34 46 29 36 30 35 31 32 40 38 40 59 62
33 30 30 31 40 38 33 29 23 21 19 18 18 17 17 16 15 15 19 18 19 20 20 20 18 17 21 23 23 22 19 11 10 11 10 12 8 13 14 14 13 13 12 14 19 17 18 29 27 28 32 28 19 20 17 16 15 13 12 13 13 12 14 14 18 39 27 23 21 23 22 22 35 61 50 38 29 24 27 29 36 37 44 36 49 52 65 63
42 42 35 22 35 35 31 28 26 23 22 20 18 18 16 14 13 13 17 20 22 23 21 17 17 17 18 19 20 21 22 18 17 9 9 9 3 11 12 12 14 12 12 17 49 15 17 23 31 20 22 24 25 22 21 19 16 14 14 11 15 13 17 20 20 36 25 40 43 28 24 38 41 48 39 37 33 40 35 33 27 41 47 39 48 47 60 68
37 36 34 25 22 33 32 30 25 24 27 29 24 20 16 13 12 11 19 22 25 25 23 20 13 14 13 16 20 20 19 20 18 22 17 7 3 9 12 12 15 12 41 61 40 21 20 22 31 37 25 19 27 39 21 20 17 14 11 12 10 13 13 18 32 36 25 37 31 38 38 37 39 35 37 34 40 33 32 39 40 40 45 60 55 62 62 64
43 41 36 44 37 25 26 25 21 20 22 27 32 29 27 17 12 15 21 23 25 25 24 21 18 14 14 15 17 17 17 19 22 22 17 7 7 9 12 14 15 28 61 43 37 17 34 21 22 42 38 32 20 28 17 19 14 12 11 14 14 15 17 18 23 23 49 37 32 42 42 36 37 37 40 42 40 45 42 46 40 45 50 43 54 64 60 60
44 42 35 34 34 36 24 21 19 16 15 21 27 30 29 27 21 20 19 22 23 23 22 24 20 15 15 15 19 19 23 24 26 21 16 12 12 6 8 10 12 45 37 18 19 19 23 20 19 17 19 14 10 12 15 18 17 18 18 15 14 14 17 18 29 21 40 31 28 49 52 43 35 33 33 38 42 46 35 36 37 40 38 56 57 48 47 48
31 28 31 33 31 32 33 34 36 35 32 22 25 29 29 28 28 23 20 20 21 21 21 23 18 15 16 17 20 23 42 41 41 37 34 36 27 18 15 13 13 28 16 18 19 34 28 18 20 12 15 12 12 14 17 15 15 16 16 17 15 12 12 14 15 15 18 44 36 47 49 36 25 28 29 34 42 38 39 42 43 43 34 55 48 48 35 42
33 28 29 34 33 29 29 30 33 33 28 35 34 30 30 31 31 29 24 19 20 20 21 21 17 19 20 20 29 21 37 37 34 37 40 37 34 31 18 19 17 16 14 16 17 35 23 26 28 18 24 19 15 13 11 14 15 18 18 18 17 14 13 14 14 14 24 24 19 25 48 42 33 49 43 40 57 49 51 35 35 52 46 35 41 41 47 44
38 37 37 36 34 30 32 34 33 32 34 35 34 33 33 30 29 28 26 20 18 23 21 18 19 22 21 19 33 26 33 37 38 35 35 34 34 23 24 24 16 19 17 18 19 23 21 24 19 23 20 18 14 11 15 15 14 14 16 16 12 11 16 15 21 19 24 36 40 32 42 36 35 40 33 41 43 46 44 49 46 46 38 44 49 47 49 56
42 37 38 37 36 38 30 27 33 31 30 30 29 30 30 29 28 28 36 32 23 21 26 25 23 24 27 32 43 39 38 36 35 34 34 31 30 27 21 28 21 24 20 19 25 18 26 24 21 17 16 18 17 16 16 15 15 15 19 14 13 18 19 17 18 24 25 23 37 32 26 38 43 45 41 42 32 40 44 38 40 55 61 52 54 55 53 52